Weather in Yanbu

Saudi Arabia     23°58′16″N   38°15′04″E
temp.,
°C
wind,
m/s
gust,
m/s
humid.,
%
clouds,
%
prec.,
mm/h
press.,
hPa
HPBL,
m
14 may, fri
fri1400:00+27nnw12420 0.0 100715
03:00+26w33460 0.0 100647
06:00+25nw33390 0.0 100762
09:00+31ssw11250 0.0 1009346
12:00+33wsw74330 0.0 1008781
15:00+33w98370 0.0 1007651
18:00+31wnw89370 0.0 1006370
21:00+27wnw45490 0.0 100758
15 may, sat
sat1500:00+25w23600 0.0 100684
03:00+25ese11670 0.0 100697
06:00+25se33670 0.0 1006118
09:00+30se33430 0.0 1008438
12:00+32wsw53400 0.0 1006664
15:00+33w75430 0.0 1004539
18:00+30w66520 0.0 1004283
21:00+26sw22780 0.0 100546
16 may, sun
sun1600:00+26se33750 0.0 100563
03:00+26s44740 0.0 1004119
06:00+26s23760 0.0 1005135
09:00+29sse44580 0.0 1006604
12:00+31ssw43540 0.0 1006643
15:00+32wsw66510 0.0 1004633
18:00+30wsw56580 0.0 1004320
21:00+27sse22760 0.0 100551
17 may, mon
mon1700:00+26sse22740 0.0 100572
03:00+26sw34730 0.0 1005156
06:00+25wnw11740 0.0 1007182
09:00+29sse32500 0.0 1008526
12:00+31sw54420 0.0 1008623
15:00+32wsw66420 0.0 1006549
18:00+30wsw45500 0.0 1006368
21:00+27ese33590 0.0 100729
18 may, tue
tue1800:00+27wnw33570 0.0 100724
03:00+26nw22590 0.0 100632
06:00+25nne11540 0.0 100620
09:00+32s11314 0.0 1007298
12:00+34wsw54320 0.0 1007609
15:00+33w99442 0.0 1006466
18:00+31wnw810493 0.0 1005320
21:00+28wnw45591 0.0 100656